GW7377 Weather Reports


time (UTC)temp
C
wind
direction
speed
KPH
gust
KPH
rain 1hr
cm
rain 24hr
cm
rain mn
cm
humidity
%
barometer
mb
20260505034542 19 359 0.0 0.0 0.00 0.00 0.00 73 1019.8
20260505034039 19 13 0.0 0.0 0.00 0.00 0.00 73 1019.8
20260505033536 19 17 0.0 0.0 0.00 0.00 0.00 72 1019.7
20260505033034 19 81 0.0 0.0 0.00 0.00 0.00 73 1019.6
20260505032531 19 47 0.0 0.0 0.00 0.00 0.00 73 1019.7
20260505032028 19 109 0.0 0.0 0.00 0.00 0.00 73 1020.0
20260505031525 19 350 0.0 0.0 0.00 0.00 0.00 73 1019.8
20260505031021 19 13 0.0 0.0 0.00 0.00 0.00 73 1019.8
20260505030518 20 170 0.0 0.0 0.00 0.00 0.00 73 1019.6
20260505030015 19 66 0.0 0.0 0.00 0.00 0.00 73 1019.8
20260505025510 20 317 0.0 0.0 0.00 0.00 0.00 73 1019.8
20260505025010 19 6 0.0 0.0 0.00 0.00 0.00 74 1019.6
20260505024506 20 326 0.0 0.0 0.00 0.00 0.00 73 1019.6
20260505024003 20 306 0.0 0.0 0.00 0.00 0.00 73 1019.6
20260505023500 20 286 0.0 0.0 0.00 0.00 0.00 73 1019.8
20260505022957 20 7 0.0 0.0 0.00 0.00 0.00 73 1019.9
20260505022455 20 48 0.0 0.0 0.00 0.00 0.00 73 1019.7
20260505021952 20 349 0.0 0.0 0.00 0.00 0.00 73 1019.9
20260505021448 20 38 0.0 0.0 0.00 0.00 0.00 74 1019.9
20260505020944 20 62 0.0 0.0 0.00 0.00 0.00 73 1019.5
20260505020439 20 353 0.0 0.0 0.00 0.00 0.00 73 1019.5
20260505015937 20 61 0.0 0.0 0.00 0.00 0.00 73 1019.6
20260505015434 20 35 0.0 0.0 0.00 0.00 0.00 73 1019.7
20260505014931 20 70 0.0 0.0 0.00 0.00 0.00 73 1019.7
20260505014427 20 135 0.0 0.0 0.00 0.00 0.00 73 1019.6
20260505013924 20 82 0.0 0.0 0.00 0.00 0.00 73 1019.6
20260505013422 20 351 0.0 0.0 0.00 0.00 0.00 73 1019.6
20260505012920 20 96 0.0 0.0 0.00 0.00 0.00 73 1019.5
20260505012418 20 77 0.0 0.0 0.00 0.00 0.00 72 1019.6
20260505011914 20 162 0.0 0.0 0.00 0.00 0.00 73 1019.8
20260505011410 20 71 0.0 0.0 0.00 0.00 0.00 72 1019.6
20260505010907 20 53 0.0 0.0 0.00 0.00 0.00 72 1019.5
20260505010403 20 347 0.0 0.0 0.00 0.00 0.00 72 1019.4
20260505005859 20 343 0.0 0.0 0.00 0.00 0.00 72 1019.4
20260505005355 20 56 0.0 0.0 0.00 0.00 0.00 72 1019.4
20260505004853 20 72 0.0 0.0 0.00 0.00 0.00 72 1019.3
20260505004349 20 294 0.0 0.0 0.00 0.00 0.00 72 1019.3
20260505003847 20 28 0.0 0.0 0.00 0.00 0.00 72 1019.3
20260505003344 20 40 0.0 0.0 0.00 0.00 0.00 71 1019.4
20260505002839 20 336 0.0 0.0 0.00 0.00 0.00 71 1019.2
20260505002337 20 8 0.0 0.0 0.00 0.00 0.00 71 1019.0
20260505001835 20 318 0.0 0.0 0.00 0.00 0.00 71 1019.3
20260505001332 21 295 0.0 0.0 0.00 0.00 0.00 70 1019.1
20260505000829 21 346 0.0 0.0 0.00 0.00 0.00 70 1019.0
20260505000327 21 327 0.0 0.0 0.00 0.00 0.00 69 1019.0
20260504235823 21 313 0.0 0.0 0.00 0.00 0.00 69 1019.1
20260504235320 21 354 0.0 0.0 0.00 0.00 0.00 69 1018.9
20260504234817 21 112 1.6 3.2 0.00 0.00 0.00 68 1019.0
20260504234315 21 169 0.0 0.0 0.00 0.00 0.00 68 1019.0
20260504233811 21 134 1.6 6.4 0.00 0.00 0.00 67 1018.8
20260504233307 22 44 0.0 0.0 0.00 0.00 0.00 67 1018.8
20260504232803 22 95 0.0 0.0 0.00 0.00 0.00 67 1018.8
20260504232301 22 342 0.0 0.0 0.00 0.00 0.00 66 1018.8
20260504231758 22 260 0.0 0.0 0.00 0.00 0.00 66 1018.5
20260504231254 22 173 0.0 0.0 0.00 0.00 0.00 66 1018.7
20260504230750 23 47 0.0 0.0 0.00 0.00 0.00 65 1018.7
20260504230248 23 346 0.0 0.0 0.00 0.00 0.00 63 1018.6
20260504225747 23 331 0.0 0.0 0.00 0.00 0.00 63 1018.6
20260504225243 23 302 0.0 0.0 0.00 0.00 0.00 62 1018.7
20260504224740 23 133 0.0 1.6 0.00 0.00 0.00 62 1018.9
20260504224237 24 90 0.0 0.0 0.00 0.00 0.00 61 1018.7
20260504223733 24 74 0.0 0.0 0.00 0.00 0.00 62 1018.8
20260504223229 24 332 0.0 0.0 0.00 0.00 0.00 61 1018.8
20260504222726 24 0 0.0 0.0 0.00 0.00 0.00 61 1018.7
20260504222223 25 32 1.6 4.8 0.00 0.00 0.00 59 1019.2
20260504221721 25 302 0.0 1.6 0.00 0.00 0.00 60 1018.8
20260504221217 25 283 0.0 0.0 0.00 0.00 0.00 60 1019.1
20260504220714 25 238 0.0 1.6 0.00 0.00 0.00 59 1019.0
20260504220212 25 19 0.0 0.0 0.00 0.00 0.00 60 1018.9
20260504215708 25 81 0.0 0.0 0.00 0.00 0.00 59 1018.9
20260504215205 25 222 0.0 1.6 0.00 0.00 0.00 59 1018.6
20260504214701 25 72 0.0 3.2 0.00 0.00 0.00 59 1018.7
20260504214157 25 332 0.0 0.0 0.00 0.00 0.00 61 1018.5
20260504213654 25 320 0.0 3.2 0.00 0.00 0.00 59 1018.9
20260504213151 25 10 0.0 0.0 0.00 0.00 0.00 58 1019.0
20260504212647 25 42 0.0 0.0 0.00 0.00 0.00 60 1019.0
20260504212144 25 139 0.0 3.2 0.00 0.00 0.00 59 1019.1
20260504211642 25 135 4.8 9.7 0.00 0.00 0.00 59 1019.0
20260504211137 25 338 1.6 3.2 0.00 0.00 0.00 61 1018.9
20260504210636 25 236 1.6 4.8 0.00 0.00 0.00 59 1019.1
20260504210132 25 139 0.0 1.6 0.00 0.00 0.00 61 1019.2
20260504205629 25 98 0.0 1.6 0.00 0.00 0.00 60 1019.1
20260504205127 25 27 0.0 0.0 0.00 0.00 0.00 60 1019.3
20260504204625 26 212 0.0 1.6 0.00 0.00 0.00 57 1019.1
20260504204124 25 203 1.6 3.2 0.00 0.00 0.00 58 1019.3
20260504203622 27 322 0.0 0.0 0.00 0.00 0.00 56 1019.0
20260504203119 26 186 0.0 4.8 0.00 0.00 0.00 57 1019.3
20260504202614 26 31 1.6 3.2 0.00 0.00 0.00 55 1019.3
20260504202111 26 118 0.0 0.0 0.00 0.00 0.00 55 1019.1
20260504201608 26 33 0.0 0.0 0.00 0.00 0.00 54 1019.2
20260504201106 26 160 0.0 0.0 0.00 0.00 0.00 55 1019.3
20260504200603 26 232 0.0 0.0 0.00 0.00 0.00 56 1019.3
20260504200059 26 57 0.0 0.0 0.00 0.00 0.00 54 1019.4
20260504195555 27 73 0.0 1.6 0.00 0.00 0.00 53 1019.5
20260504195051 27 290 0.0 1.6 0.00 0.00 0.00 54 1019.4
20260504194548 26 38 0.0 0.0 0.00 0.00 0.00 54 1019.5
20260504194043 26 97 0.0 1.6 0.00 0.00 0.00 54 1019.6
20260504193540 26 9 0.0 0.0 0.00 0.00 0.00 56 1019.5
20260504193039 25 206 1.6 3.2 0.00 0.00 0.00 54 1019.5
20260504192537 25 28 0.0 0.0 0.00 0.00 0.00 54 1019.5
20260504192035 26 20 0.0 0.0 0.00 0.00 0.00 55 1019.7
20260504191532 26 142 0.0 1.6 0.00 0.00 0.00 54 1019.7
20260504191028 26 341 1.6 4.8 0.00 0.00 0.00 52 1019.8
20260504190525 26 322 0.0 0.0 0.00 0.00 0.00 53 1019.9
20260504190020 26 47 0.0 0.0 0.00 0.00 0.00 55 1020.0
20260504185518 26 347 0.0 1.6 0.00 0.00 0.00 53 1020.3
20260504185014 25 227 1.6 3.2 0.00 0.00 0.00 53 1020.3
20260504184510 26 74 1.6 3.2 0.00 0.00 0.00 53 1020.2
20260504184006 26 114 1.6 3.2 0.00 0.00 0.00 52 1020.3
20260504183503 26 64 0.0 0.0 0.00 0.00 0.00 53 1020.7
20260504183001 25 52 0.0 1.6 0.00 0.00 0.00 52 1020.5
20260504182457 26 69 1.6 3.2 0.00 0.00 0.00 51 1020.4
20260504181955 25 75 0.0 0.0 0.00 0.00 0.00 53 1020.5
20260504181452 26 185 1.6 3.2 0.00 0.00 0.00 51 1020.5
20260504180950 26 32 3.2 6.4 0.00 0.00 0.00 51 1020.2
20260504180449 25 208 0.0 1.6 0.00 0.00 0.00 53 1020.5
20260504175947 25 166 1.6 4.8 0.00 0.00 0.00 52 1020.4
20260504175444 25 66 0.0 0.0 0.00 0.00 0.00 54 1020.5
20260504174941 25 46 0.0 0.0 0.00 0.00 0.00 52 1020.7
20260504174438 25 107 1.6 4.8 0.00 0.00 0.00 53 1020.5
20260504173936 25 38 0.0 3.2 0.00 0.00 0.00 53 1020.7
20260504173431 26 195 0.0 3.2 0.00 0.00 0.00 52 1020.6
20260504172930 26 197 1.6 3.2 0.00 0.00 0.00 52 1020.6
20260504172426 25 51 0.0 0.0 0.00 0.00 0.00 52 1020.7
20260504171922 26 116 0.0 1.6 0.00 0.00 0.00 50 1020.8
20260504171420 26 127 0.0 0.0 0.00 0.00 0.00 50 1020.9
20260504170916 25 19 0.0 0.0 0.00 0.00 0.00 53 1020.9
20260504170413 26 121 0.0 1.6 0.00 0.00 0.00 49 1020.9
20260504160332 26 18 0.0 0.0 0.00 0.00 0.00 50 1021.2
20260504150756 25 175 0.0 0.0 0.00 0.00 0.00 44 1021.4
20260504150253 25 85 0.0 0.0 0.00 0.00 0.00 44 1021.1
20260504141223 25 165 0.0 0.0 0.00 0.00 0.00 46 1021.2
20260504140719 25 125 0.0 0.0 0.00 0.00 0.00 43 1021.1
20260504140215 24 122 0.0 0.0 0.00 0.00 0.00 43 1021.2
20260504130643 22 89 0.0 0.0 0.00 0.00 0.00 57 1020.9
20260504130140 22 279 0.0 0.0 0.00 0.00 0.00 58 1021.0
20260504120104 17 40 0.0 0.0 0.00 0.00 0.00 99 1020.6
20260504110531 11 348 0.0 0.0 0.00 0.00 0.00 99 1020.3
20260504100453 11 348 0.0 0.0 0.00 0.00 0.00 99 1020.1
20260504081847 12 339 0.0 0.0 0.00 0.00 0.00 98 1020.1
20260504081343 12 347 0.0 0.0 0.00 0.00 0.00 98 1020.2
20260504080839 11 348 0.0 0.0 0.00 0.00 0.00 98 1020.1
20260504080336 11 348 0.0 0.0 0.00 0.00 0.00 98 1020.0
20260504070304 12 349 0.0 0.0 0.00 0.00 0.00 97 1019.9
20260504060224 13 348 0.0 0.0 0.00 0.00 0.00 94 1021.0
20260504050652 15 339 0.0 0.0 0.00 0.00 0.00 91 1021.3
20260504050149 15 335 0.0 0.0 0.00 0.00 0.00 91 1021.5
20260504045646 15 344 0.0 0.0 0.00 0.00 0.00 90 1021.3
20260504045146 15 336 0.0 0.0 0.00 0.00 0.00 90 1021.1
20260504044644 15 348 0.0 0.0 0.00 0.00 0.00 89 1021.4
20260504044140 15 345 0.0 0.0 0.00 0.00 0.00 89 1021.3
20260504043637 15 350 0.0 0.0 0.00 0.00 0.00 88 1021.4
20260504043135 15 351 0.0 0.0 0.00 0.00 0.00 87 1021.4
20260504042632 16 351 0.0 0.0 0.00 0.00 0.00 86 1021.2
20260504042129 16 330 0.0 0.0 0.00 0.00 0.00 86 1021.2
20260504041624 16 351 0.0 0.0 0.00 0.00 0.00 84 1021.2
20260504041121 17 348 0.0 0.0 0.00 0.00 0.00 83 1021.2
20260504040618 17 355 0.0 0.0 0.00 0.00 0.00 81 1021.3
20260504040115 17 1 0.0 0.0 0.00 0.00 0.00 80 1021.3
20260504035612 17 355 0.0 0.0 0.00 0.00 0.00 80 1021.2
20260504035108 18 355 0.0 0.0 0.00 0.00 0.00 80 1021.2
20260504034606 18 17 0.0 0.0 0.00 0.00 0.00 80 1021.3